20040326,000003,259193,30.838240,-121.608040,NaN,15.999,32.847,41.479,2036.53,0.0, NaN,14.775,14.738, NaN,24.092,   NaN,15.65,1021.23,86.27,15.32,354.9,352.5,5.4,6.3,313.8,310.5,5.2,6.2,NaN, NaN,NaN,212.9,NaN,1080259203,NaN,NaN,0.7,000003,   NaN,308.5,30.838120,-121.607930,-0.12,NaN,NaN,16.003, NaN,NaN,NaN, NaN, NaN
20040326,000033,259223,30.838200,-121.608160,NaN,15.996,32.839,41.468,2039.13,0.0, NaN,14.779,14.741, NaN,24.087,   NaN,15.66,1021.25,86.24,15.33,3.4,0.7,5.4,6.4,316.9,313.3,5.2,6.2,NaN, NaN,NaN,250.3,NaN,1080259233,NaN,NaN,1.6,000033,   NaN,303.1,30.838080,-121.608060,-0.19,NaN,NaN,16.000, NaN,NaN,NaN, NaN, NaN
20040326,000103,259253,30.838140,-121.608330,NaN,16.000,32.820,41.449,2040.52,0.0, NaN,14.782,14.747, NaN,24.071,   NaN,15.68,1021.24,86.38,15.35,8.3,6.1,5.7,6.4,318.1,315.1,5.6,6.2,NaN, NaN,NaN,251.8,NaN,1080259263,NaN,NaN,1.1,000063,   NaN,303.3,30.838030,-121.608230,-0.34,NaN,NaN,16.004, NaN,NaN,NaN, NaN, NaN
20040326,000133,259283,30.838090,-121.608530,NaN,16.000,32.818,41.447,2037.35,0.0, NaN,14.784,14.748, NaN,24.070,   NaN,15.70,1021.23,86.56,15.38,9.2,7.2,5.7,6.3,319.8,316.5,5.4,6.0,NaN, NaN,NaN,14.0,NaN,1080259293,NaN,NaN,1.3,000093,   NaN,308.1,30.837980,-121.608420,-0.36,NaN,NaN,16.004, NaN,NaN,NaN, NaN, NaN
20040326,000202,259312,30.838050,-121.608690,NaN,16.000,32.826,41.457,2030.81,0.0, NaN,14.782,14.744, NaN,24.076,   NaN,15.69,1021.26,86.55,15.38,7.9,4.2,5.5,6.2,322.2,317.2,5.3,6.0,NaN, NaN,NaN,238.3,NaN,1080259323,NaN,NaN,1.2,000123,   NaN,313.7,30.837930,-121.608590,-0.28,NaN,NaN,16.004, NaN,NaN,NaN, NaN, NaN
20040326,000233,259342,30.838030,-121.608860,NaN,16.002,32.816,41.448,2023.22,0.0, NaN,14.780,14.741, NaN,24.068,   NaN,15.68,1021.28,86.40,15.38,3.7,359.5,5.3,6.3,322.1,316.9,5.2,6.1,NaN, NaN,NaN,323.0,NaN,1080259353,NaN,NaN,0.0,000153,   NaN,316.5,30.837890,-121.608770,-0.47,NaN,NaN,16.006, NaN,NaN,NaN, NaN, NaN
20040326,000303,259373,30.837990,-121.609030,NaN,16.007,32.828,41.466,2023.61,0.0, NaN,14.778,14.741, NaN,24.076,   NaN,15.68,1021.24,86.29,15.36,358.7,355.2,5.2,6.3,319.7,314.9,5.0,6.1,NaN, NaN,NaN,36.1,NaN,1080259384,NaN,NaN,1.2,000183,   NaN,315.1,30.837870,-121.608930,-0.30,NaN,NaN,16.011, NaN,NaN,NaN, NaN, NaN
20040326,000333,259403,30.837990,-121.609190,NaN,16.007,32.834,41.473,2017.79,0.0, NaN,14.775,14.737, NaN,24.081,   NaN,15.68,1021.22,86.30,15.36,356.0,355.2,5.3,6.4,316.0,314.2,4.9,6.2,NaN, NaN,NaN,236.9,NaN,1080259413,NaN,NaN,2.8,000213,   NaN,313.1,30.837850,-121.609100,-0.16,NaN,NaN,16.011, NaN,NaN,NaN, NaN, NaN
20040326,000404,259434,30.837990,-121.609390,NaN,16.006,32.840,41.478,2015.56,0.0, NaN,14.775,14.739, NaN,24.085,   NaN,15.67,1021.23,86.17,15.34,359.6,358.9,5.7,6.7,318.1,316.3,5.4,6.4,NaN, NaN,NaN,254.6,NaN,1080259444,NaN,NaN,2.2,000244,   NaN,308.1,30.837870,-121.609280,-0.19,NaN,NaN,16.010, NaN,NaN,NaN, NaN, NaN
20040326,000433,259463,30.837980,-121.609600,NaN,16.002,32.841,41.476,2017.10,0.0, NaN,14.778,14.742, NaN,24.087,   NaN,15.68,1021.24,86.34,15.35,3.7,2.7,6.0,6.7,319.4,317.5,5.6,6.3,NaN, NaN,NaN,275.0,NaN,1080259473,NaN,NaN,1.9,000273,   NaN,308.5,30.837860,-121.609500,-0.25,NaN,NaN,16.006, NaN,NaN,NaN, NaN, NaN
20040326,000503,259492,30.837990,-121.609820,NaN,16.002,32.838,41.472,2013.60,0.0, NaN,14.779,14.741, NaN,24.085,   NaN,15.68,1021.26,86.34,15.37,4.7,3.3,5.9,6.7,319.6,317.3,5.5,6.2,NaN, NaN,NaN,339.3,NaN,1080259504,NaN,NaN,1.5,000303,   NaN,311.0,30.837870,-121.609710,-0.32,NaN,NaN,16.006, NaN,NaN,NaN, NaN, NaN
20040326,000533,259523,30.837980,-121.610040,NaN,16.000,32.834,41.467,2004.36,0.0, NaN,14.780,14.742, NaN,24.082,   NaN,15.68,1021.22,86.33,15.38,2.3,1.2,5.8,6.6,318.4,316.3,5.3,6.2,NaN, NaN,NaN,243.9,NaN,1080259533,NaN,NaN,2.4,000333,   NaN,313.9,30.837850,-121.609940,-0.20,NaN,NaN,16.004, NaN,NaN,NaN, NaN, NaN
20040326,000604,259554,30.838000,-121.610240,NaN,15.999,32.836,41.468,1998.06,0.0, NaN,14.775,14.739, NaN,24.084,   NaN,15.66,1021.20,86.20,15.35,1.3,358.1,5.7,6.7,319.7,315.4,5.3,6.3,NaN, NaN,NaN,247.2,NaN,1080259564,NaN,NaN,2.5,000364,   NaN,314.0,30.837870,-121.610130,-0.13,NaN,NaN,16.003, NaN,NaN,NaN, NaN, NaN
20040326,000633,259583,30.838030,-121.610430,NaN,16.010,32.837,41.479,1998.23,0.0, NaN,14.773,14.736, NaN,24.082,   NaN,15.66,1021.24,86.04,15.33,3.0,357.2,5.8,6.8,321.9,314.9,5.4,6.4,NaN, NaN,NaN,333.5,NaN,1080259593,NaN,NaN,1.3,000393,   NaN,311.8,30.837900,-121.610340,-0.17,NaN,NaN,16.014, NaN,NaN,NaN, NaN, NaN
20040326,000704,259614,30.838020,-121.610650,NaN,16.013,32.838,41.483,1996.96,0.0, NaN,14.770,14.732, NaN,24.082,   NaN,15.67,1021.19,86.18,15.34,4.5,359.7,5.7,6.8,322.2,315.8,5.3,6.4,NaN, NaN,NaN,249.8,NaN,1080259624,NaN,NaN,1.4,000424,   NaN,309.2,30.837930,-121.610570,-0.27,NaN,NaN,16.017, NaN,NaN,NaN, NaN, NaN
20040326,000734,259644,30.838030,-121.610880,NaN,16.014,32.837,41.482,1995.51,0.0, NaN,14.763,14.725, NaN,24.081,   NaN,15.67,1021.21,86.23,15.36,3.1,2.4,5.8,6.7,319.2,317.2,5.4,6.2,NaN, NaN,NaN,239.1,NaN,1080259654,NaN,NaN,2.7,000454,   NaN,309.5,30.837920,-121.610780,-0.19,NaN,NaN,16.018, NaN,NaN,NaN, NaN, NaN
20040326,000804,259674,30.838040,-121.611100,NaN,16.012,32.835,41.478,1991.57,0.0, NaN,14.758,14.720, NaN,24.080,   NaN,15.66,1021.20,86.06,15.36,1.7,1.5,5.9,6.8,317.3,315.9,5.3,6.3,NaN, NaN,NaN,306.1,NaN,1080259684,NaN,NaN,1.5,000484,   NaN,311.1,30.837920,-121.611000,-0.24,NaN,NaN,16.016, NaN,NaN,NaN, NaN, NaN
20040326,000834,259704,30.838050,-121.611320,NaN,16.004,32.824,41.458,1987.25,0.0, NaN,14.752,14.714, NaN,24.074,   NaN,15.67,1021.20,86.05,15.35,0.5,359.7,5.7,6.9,316.4,314.5,5.2,6.3,NaN, NaN,NaN,268.1,NaN,1080259714,NaN,NaN,1.7,000514,   NaN,311.5,30.837920,-121.611210,-0.28,NaN,NaN,16.008, NaN,NaN,NaN, NaN, NaN
20040326,000903,259733,30.838050,-121.611520,NaN,15.985,32.813,41.428,1986.23,0.0, NaN,14.748,14.710, NaN,24.069,   NaN,15.67,1021.21,86.02,15.35,359.9,359.5,5.5,6.8,316.7,315.0,5.0,6.3,NaN, NaN,NaN,277.4,NaN,1080259743,NaN,NaN,0.5,000543,   NaN,311.8,30.837920,-121.611420,-0.21,NaN,NaN,15.989, NaN,NaN,NaN, NaN, NaN
20040326,000934,259764,30.838060,-121.611740,NaN,15.966,32.800,41.396,1982.38,0.0, NaN,14.745,14.706, NaN,24.063,   NaN,15.68,1021.22,86.06,15.35,358.7,359.9,5.4,6.7,315.5,315.6,4.9,6.2,NaN, NaN,NaN,297.1,NaN,1080259774,NaN,NaN,1.6,000574,   NaN,312.5,30.837930,-121.611640,-0.18,NaN,NaN,15.970, NaN,NaN,NaN, NaN, NaN
20040326,001004,259794,30.838070,-121.611960,NaN,15.943,32.787,41.359,1980.02,0.0, NaN,14.739,14.700, NaN,24.059,   NaN,15.67,1021.24,85.96,15.37,359.1,359.9,5.5,6.7,316.3,316.1,5.0,6.2,NaN, NaN,NaN,255.8,NaN,1080259804,NaN,NaN,0.6,000604,   NaN,312.8,30.837940,-121.611870,-0.21,NaN,NaN,15.947, NaN,NaN,NaN, NaN, NaN
20040326,001033,259823,30.838090,-121.612180,NaN,15.885,32.784,41.302,1976.66,0.0, NaN,14.733,14.696, NaN,24.069,   NaN,15.68,1021.22,86.01,15.36,359.4,359.9,5.6,6.9,317.2,316.8,5.1,6.4,NaN, NaN,NaN,279.7,NaN,1080259833,NaN,NaN,1.3,000633,   NaN,312.7,30.837960,-121.612080,-0.23,NaN,NaN,15.889, NaN,NaN,NaN, NaN, NaN
20040326,001104,259854,30.838100,-121.612410,NaN,15.825,32.779,41.239,1969.38,0.0, NaN,14.725,14.686, NaN,24.079,   NaN,15.68,1021.21,85.92,15.35,4.5,0.5,5.7,6.8,322.5,317.3,5.3,6.3,NaN, NaN,NaN,285.1,NaN,1080259864,NaN,NaN,1.5,000664,   NaN,312.1,30.837970,-121.612300,-0.23,NaN,NaN,15.829, NaN,NaN,NaN, NaN, NaN
20040326,001134,259884,30.838100,-121.612640,NaN,15.799,32.775,41.211,1969.11,0.0, NaN,14.720,14.682, NaN,24.082,   NaN,15.68,1021.19,85.92,15.36,4.8,1.0,5.9,6.9,322.8,317.6,5.4,6.4,NaN, NaN,NaN,244.8,NaN,1080259894,NaN,NaN,0.8,000694,   NaN,311.7,30.837980,-121.612520,-0.12,NaN,NaN,15.803, NaN,NaN,NaN, NaN, NaN
20040326,001204,259913,30.838130,-121.612840,NaN,15.776,32.791,41.208,1966.38,0.0, NaN,14.718,14.679, NaN,24.099,   NaN,15.67,1021.23,85.72,15.34,2.2,1.7,6.0,7.0,320.1,318.0,5.6,6.5,NaN, NaN,NaN,243.1,NaN,1080259925,NaN,NaN,1.8,000724,   NaN,312.1,30.838000,-121.612750,-0.23,NaN,NaN,15.780, NaN,NaN,NaN, NaN, NaN
20040326,001233,259943,30.838140,-121.613050,NaN,15.762,32.801,41.206,1966.76,0.0, NaN,14.713,14.673, NaN,24.110,   NaN,15.69,1021.23,85.93,15.39,357.7,1.2,6.0,7.0,314.7,317.4,5.5,6.5,NaN, NaN,NaN,34.1,NaN,1080259954,NaN,NaN,1.3,000753,   NaN,312.6,30.838010,-121.612950,-0.25,NaN,NaN,15.766, NaN,NaN,NaN, NaN, NaN
20040326,001304,259974,30.838140,-121.613260,NaN,15.750,32.814,41.209,1964.16,0.0, NaN,14.710,14.671, NaN,24.122,   NaN,15.69,1021.27,85.86,15.37,359.4,359.9,5.7,6.6,317.5,316.9,5.3,6.1,NaN, NaN,NaN,279.6,NaN,1080259984,NaN,NaN,0.0,000784,   NaN,312.2,30.838020,-121.613170,-0.21,NaN,NaN,15.754, NaN,NaN,NaN, NaN, NaN
20040326,001333,260002,30.838140,-121.613470,NaN,15.745,32.824,41.216,1958.30,0.0, NaN,14.702,14.665, NaN,24.131,   NaN,15.70,1021.22,85.91,15.38,1.9,0.2,5.7,6.6,320.1,317.1,5.2,6.1,NaN, NaN,NaN,257.6,NaN,1080260014,NaN,NaN,0.8,000813,   NaN,311.5,30.838020,-121.613360,-0.19,NaN,NaN,15.749, NaN,NaN,NaN, NaN, NaN
20040326,001404,260034,30.838150,-121.613690,NaN,15.742,32.823,41.212,1957.16,0.0, NaN,14.695,14.660, NaN,24.132,   NaN,15.70,1021.24,86.08,15.42,4.4,0.6,5.5,6.4,321.7,317.0,5.1,5.9,NaN, NaN,NaN,272.7,NaN,1080260044,NaN,NaN,2.5,000844,   NaN,309.8,30.838020,-121.613590,-0.26,NaN,NaN,15.746, NaN,NaN,NaN, NaN, NaN
20040326,001434,260064,30.838160,-121.613920,NaN,15.733,32.825,41.206,1956.10,0.0, NaN,14.687,14.651, NaN,24.135,   NaN,15.69,1021.26,85.96,15.39,3.2,0.6,5.5,6.4,319.4,315.6,5.0,5.9,NaN, NaN,NaN,324.4,NaN,1080260074,NaN,NaN,1.7,000874,   NaN,310.0,30.838040,-121.613820,-0.25,NaN,NaN,15.737, NaN,NaN,NaN, NaN, NaN
20040326,001504,260093,30.838160,-121.614160,NaN,15.736,32.830,41.214,1952.20,0.0, NaN,14.685,14.647, NaN,24.138,   NaN,15.69,1021.23,86.06,15.42,3.0,0.1,5.5,6.7,319.3,315.0,5.1,6.2,NaN, NaN,NaN,347.3,NaN,1080260104,NaN,NaN,1.8,000904,   NaN,313.8,30.838020,-121.614050,-0.24,NaN,NaN,15.740, NaN,NaN,NaN, NaN, NaN
20040326,001534,260124,30.838160,-121.614390,NaN,15.727,32.832,41.208,1947.56,0.0, NaN,14.682,14.642, NaN,24.142,   NaN,15.68,1021.27,85.79,15.37,359.8,358.8,5.7,6.7,317.9,315.6,5.1,6.2,NaN, NaN,NaN,296.3,NaN,1080260134,NaN,NaN,1.9,000934,   NaN,313.7,30.838040,-121.614280,-0.28,NaN,NaN,15.731, NaN,NaN,NaN, NaN, NaN
20040326,001604,260154,30.838180,-121.614590,NaN,15.715,32.835,41.200,1940.49,0.0, NaN,14.671,14.631, NaN,24.146,   NaN,15.68,1021.25,85.84,15.37,358.9,357.9,5.9,6.9,317.3,315.1,5.3,6.4,NaN, NaN,NaN,210.2,NaN,1080260164,NaN,NaN,2.1,000964,   NaN,311.8,30.838050,-121.614490,-0.20,NaN,NaN,15.719, NaN,NaN,NaN, NaN, NaN
20040326,001634,260184,30.838180,-121.614770,NaN,15.712,32.839,41.201,1936.85,0.0, NaN,14.671,14.634, NaN,24.150,   NaN,15.68,1021.27,85.76,15.37,0.0,359.4,5.8,6.9,317.5,315.9,5.4,6.5,NaN, NaN,NaN,246.2,NaN,1080260194,NaN,NaN,1.1,000994,   NaN,312.6,30.838040,-121.614660,-0.25,NaN,NaN,15.716, NaN,NaN,NaN, NaN, NaN
20040326,001704,260214,30.838170,-121.614980,NaN,15.708,32.838,41.197,1935.48,0.0, NaN,14.676,14.641, NaN,24.150,   NaN,15.70,1021.30,85.92,15.38,359.8,0.0,5.8,6.8,317.5,316.5,5.4,6.4,NaN, NaN,NaN,281.6,NaN,1080260224,NaN,NaN,0.8,001024,   NaN,312.5,30.838040,-121.614880,-0.31,NaN,NaN,15.712, NaN,NaN,NaN, NaN, NaN
20040326,001734,260244,30.838160,-121.615180,NaN,15.708,32.836,41.195,1931.50,0.0, NaN,14.681,14.643, NaN,24.149,   NaN,15.70,1021.31,85.97,15.42,0.0,359.9,5.6,6.6,318.3,316.8,5.2,6.2,NaN, NaN,NaN,260.0,NaN,1080260254,NaN,NaN,0.7,001054,   NaN,312.3,30.838040,-121.615080,-0.25,NaN,NaN,15.712, NaN,NaN,NaN, NaN, NaN
20040326,001804,260274,30.838160,-121.615380,NaN,15.692,32.837,41.181,1929.37,0.0, NaN,14.678,14.640, NaN,24.154,   NaN,15.70,1021.29,86.03,15.41,0.1,0.2,5.7,6.6,317.7,316.3,5.3,6.2,NaN, NaN,NaN,260.1,NaN,1080260284,NaN,NaN,1.4,001084,   NaN,309.8,30.838040,-121.615280,-0.22,NaN,NaN,15.696, NaN,NaN,NaN, NaN, NaN
20040326,001834,260304,30.838160,-121.615600,NaN,15.692,32.830,41.174,1927.49,0.0, NaN,14.674,14.637, NaN,24.148,   NaN,15.70,1021.27,85.95,15.41,0.9,1.6,6.0,6.9,316.6,316.4,5.5,6.4,NaN, NaN,NaN,268.9,NaN,1080260314,NaN,NaN,1.5,001114,   NaN,310.0,30.838040,-121.615490,-0.24,NaN,NaN,15.696, NaN,NaN,NaN, NaN, NaN
20040326,001904,260334,30.838160,-121.615820,NaN,15.696,32.832,41.180,1920.86,0.0, NaN,14.671,14.635, NaN,24.149,   NaN,15.68,1021.30,85.84,15.38,1.6,2.4,6.0,7.0,317.2,317.0,5.5,6.5,NaN, NaN,NaN,245.5,NaN,1080260344,NaN,NaN,3.1,001144,   NaN,312.8,30.838030,-121.615710,-0.25,NaN,NaN,15.700, NaN,NaN,NaN, NaN, NaN
20040326,001934,260364,30.838170,-121.616050,NaN,15.700,32.838,41.190,1918.17,0.0, NaN,14.674,14.639, NaN,24.152,   NaN,15.69,1021.36,86.04,15.42,1.7,0.4,5.8,6.8,320.1,317.2,5.3,6.3,NaN, NaN,NaN,326.1,NaN,1080260374,NaN,NaN,1.5,001174,   NaN,312.3,30.838050,-121.615950,-0.33,NaN,NaN,15.704, NaN,NaN,NaN, NaN, NaN
20040326,002004,260394,30.838170,-121.616310,NaN,15.696,32.839,41.188,1923.15,0.0, NaN,14.681,14.645, NaN,24.154,   NaN,15.69,1021.28,86.08,15.40,6.3,2.5,6.0,6.8,321.8,316.8,5.5,6.3,NaN, NaN,NaN,233.1,NaN,1080260404,NaN,NaN,3.2,001204,   NaN,295.8,30.838080,-121.616180,-0.13,NaN,NaN,15.700, NaN,NaN,NaN, NaN, NaN
20040326,002034,260423,30.838170,-121.616660,NaN,15.691,32.839,41.182,1923.31,0.0, NaN,14.684,14.647, NaN,24.155,   NaN,15.66,1021.30,86.07,15.41,15.0,12.2,6.7,7.2,321.1,317.1,6.1,6.6,NaN, NaN,NaN,237.4,NaN,1080260434,NaN,NaN,3.8,001234,   NaN,289.5,30.838090,-121.616520,-0.22,NaN,NaN,15.695, NaN,NaN,NaN, NaN, NaN
20040326,002104,260454,30.838140,-121.617050,NaN,15.689,32.842,41.184,1920.91,0.0, NaN,14.689,14.653, NaN,24.158,   NaN,15.64,1021.26,86.31,15.41,23.5,21.0,7.0,7.3,322.2,318.4,6.3,6.6,NaN, NaN,NaN,250.5,NaN,1080260465,NaN,NaN,3.4,001264,   NaN,288.8,30.838050,-121.616920,-0.45,NaN,NaN,15.693, NaN,NaN,NaN, NaN, NaN
20040326,002134,260484,30.838090,-121.617460,NaN,15.703,32.841,41.195,1920.75,0.0, NaN,14.695,14.662, NaN,24.154,   NaN,15.60,1021.27,86.08,15.39,24.0,21.1,7.2,7.7,321.3,317.3,6.4,6.8,NaN, NaN,NaN,270.0,NaN,1080260494,NaN,NaN,2.4,001294,   NaN,288.7,30.838010,-121.617330,-0.48,NaN,NaN,15.707, NaN,NaN,NaN, NaN, NaN
20040326,002204,260514,30.838050,-121.617890,NaN,15.701,32.843,41.196,1917.82,0.0, NaN,14.704,14.670, NaN,24.156,   NaN,15.60,1021.34,86.23,15.38,22.9,20.2,7.2,7.7,320.5,316.7,6.4,6.9,NaN, NaN,NaN,260.4,NaN,1080260524,NaN,NaN,3.4,001324,   NaN,287.1,30.837970,-121.617750,-0.45,NaN,NaN,15.705, NaN,NaN,NaN, NaN, NaN
20040326,002233,260543,30.838000,-121.618300,NaN,15.702,32.845,41.200,1910.54,0.0, NaN,14.713,14.678, NaN,24.157,   NaN,15.61,1021.25,86.37,15.40,23.6,20.7,7.0,7.6,320.3,316.0,6.2,6.8,NaN, NaN,NaN,275.2,NaN,1080260554,NaN,NaN,2.4,001353,   NaN,285.7,30.837930,-121.618170,-0.47,NaN,NaN,15.706, NaN,NaN,NaN, NaN, NaN
20040326,002303,260573,30.837930,-121.618750,NaN,15.707,32.845,41.204,1907.64,0.0, NaN,14.721,14.687, NaN,24.156,   NaN,15.60,1021.30,86.33,15.38,26.1,23.0,7.0,7.8,322.2,317.3,6.2,7.0,NaN, NaN,NaN,269.0,NaN,1080260584,NaN,NaN,2.6,001383,   NaN,284.7,30.837850,-121.618620,-0.50,NaN,NaN,15.711, NaN,NaN,NaN, NaN, NaN
20040326,002333,260603,30.837840,-121.619190,NaN,15.713,32.846,41.210,1905.16,0.0, NaN,14.730,14.695, NaN,24.155,   NaN,15.58,1021.25,86.42,15.38,26.8,24.0,7.2,8.0,322.3,317.8,6.4,7.2,NaN, NaN,NaN,240.5,NaN,1080260614,NaN,NaN,3.3,001413,   NaN,284.9,30.837760,-121.619060,-0.51,NaN,NaN,15.717, NaN,NaN,NaN, NaN, NaN
20040326,002403,260633,30.837780,-121.619620,NaN,15.719,32.846,41.217,1900.33,0.0, NaN,14.742,14.706, NaN,24.155,   NaN,15.58,1021.27,86.42,15.38,26.7,23.9,7.2,8.0,321.9,317.4,6.4,7.2,NaN, NaN,NaN,288.6,NaN,1080260644,NaN,NaN,2.6,001443,   NaN,286.0,30.837700,-121.619490,-0.61,NaN,NaN,15.723, NaN,NaN,NaN, NaN, NaN
20040326,002433,260663,30.837710,-121.620050,NaN,15.742,32.843,41.235,1896.65,0.0, NaN,14.748,14.712, NaN,24.147,   NaN,15.57,1021.27,86.41,15.38,27.0,23.7,7.5,8.3,322.4,317.5,6.8,7.5,NaN, NaN,NaN,254.5,NaN,1080260674,NaN,NaN,3.8,001473,   NaN,286.5,30.837620,-121.619930,-0.67,NaN,NaN,15.746, NaN,NaN,NaN, NaN, NaN
20040326,002503,260692,30.837640,-121.620490,NaN,15.739,32.845,41.234,1895.15,0.0, NaN,14.751,14.715, NaN,24.149,   NaN,15.57,1021.30,86.49,15.38,27.3,24.4,7.7,8.4,322.6,318.3,7.0,7.7,NaN, NaN,NaN,279.1,NaN,1080260704,NaN,NaN,3.1,001503,   NaN,285.0,30.837550,-121.620370,-0.55,NaN,NaN,15.743, NaN,NaN,NaN, NaN, NaN
20040326,002533,260723,30.837530,-121.620920,NaN,15.742,32.847,41.239,1890.86,0.0, NaN,14.754,14.719, NaN,24.150,   NaN,15.57,1021.28,86.59,15.39,28.3,25.3,7.4,8.3,323.7,319.0,6.7,7.5,NaN, NaN,NaN,293.2,NaN,1080260734,NaN,NaN,2.0,001533,   NaN,285.8,30.837460,-121.620790,-0.60,NaN,NaN,15.746, NaN,NaN,NaN, NaN, NaN
20040326,002603,260753,30.837450,-121.621320,NaN,15.755,32.848,41.252,1883.02,0.0, NaN,14.759,14.724, NaN,24.147,   NaN,15.58,1021.29,86.76,15.41,27.5,24.4,7.2,8.0,323.1,318.0,6.5,7.3,NaN, NaN,NaN,283.6,NaN,1080260764,NaN,NaN,2.0,001563,   NaN,287.8,30.837360,-121.621180,-0.50,NaN,NaN,15.759, NaN,NaN,NaN, NaN, NaN
20040326,002633,260783,30.837370,-121.621670,NaN,15.768,32.848,41.264,1880.08,0.0, NaN,14.769,14.734, NaN,24.145,   NaN,15.58,1021.33,86.73,15.38,26.1,23.4,7.4,8.0,321.8,317.4,6.7,7.4,NaN, NaN,NaN,236.1,NaN,1080260794,NaN,NaN,3.8,001593,   NaN,287.1,30.837270,-121.621550,-0.55,NaN,NaN,15.772, NaN,NaN,NaN, NaN, NaN
20040326,002703,260813,30.837300,-121.622020,NaN,15.776,32.848,41.272,1872.28,0.0, NaN,14.774,14.738, NaN,24.143,   NaN,15.58,1021.33,86.90,15.39,26.2,23.7,7.3,7.9,321.8,317.8,6.7,7.3,NaN, NaN,NaN,232.9,NaN,1080260824,NaN,NaN,2.5,001623,   NaN,285.1,30.837200,-121.621900,-0.44,NaN,NaN,15.780, NaN,NaN,NaN, NaN, NaN
20040326,002733,260842,30.837190,-121.622380,NaN,15.770,32.847,41.266,1871.19,0.0, NaN,14.778,14.744, NaN,24.144,   NaN,15.58,1021.33,86.99,15.40,26.6,24.1,7.1,7.7,321.6,317.9,6.6,7.1,NaN, NaN,NaN,256.1,NaN,1080260854,NaN,NaN,1.2,001653,   NaN,285.3,30.837100,-121.622240,-0.66,NaN,NaN,15.774, NaN,NaN,NaN, NaN, NaN
20040326,002803,260873,30.837080,-121.622680,NaN,15.781,32.848,41.276,1867.32,0.0, NaN,14.785,14.751, NaN,24.142,   NaN,15.57,1021.34,86.81,15.38,27.8,25.3,7.2,7.8,321.8,318.3,6.7,7.4,NaN, NaN,NaN,322.9,NaN,1080260884,NaN,NaN,1.1,001683,   NaN,285.1,30.836990,-121.622550,-0.71,NaN,NaN,15.785, NaN,NaN,NaN, NaN, NaN
20040326,002833,260903,30.836940,-121.622920,NaN,15.794,32.849,41.290,1858.83,0.0, NaN,14.793,14.759, NaN,24.140,   NaN,15.58,1021.32,86.90,15.39,28.5,25.9,7.0,7.7,322.0,318.4,6.7,7.5,NaN, NaN,NaN,255.5,NaN,1080260914,NaN,NaN,1.6,001713,   NaN,287.2,30.836850,-121.622790,-0.64,NaN,NaN,15.798, NaN,NaN,NaN, NaN, NaN
20040326,002903,260933,30.836810,-121.623140,NaN,15.803,32.847,41.296,1855.18,0.0, NaN,14.798,14.766, NaN,24.136,   NaN,15.59,1021.37,87.01,15.41,27.8,25.0,6.6,7.4,322.8,319.2,6.5,7.2,NaN, NaN,NaN,244.6,NaN,1080260944,NaN,NaN,2.4,001743,   NaN,289.6,30.836710,-121.623010,-0.68,NaN,NaN,15.807, NaN,NaN,NaN, NaN, NaN
20040326,002933,260963,30.836650,-121.623360,NaN,15.801,32.847,41.295,1851.38,0.0, NaN,14.803,14.771, NaN,24.137,   NaN,15.61,1021.34,87.11,15.42,26.3,24.0,6.6,7.2,322.9,319.9,6.6,7.2,NaN, NaN,NaN,208.7,NaN,1080260974,NaN,NaN,2.4,001773,   NaN,289.0,30.836560,-121.623230,-0.69,NaN,NaN,15.805, NaN,NaN,NaN, NaN, NaN
20040326,003003,260993,30.836540,-121.623570,NaN,15.803,32.847,41.296,1849.31,0.0, NaN,14.812,14.776, NaN,24.136,   NaN,15.60,1021.36,86.88,15.39,25.5,23.3,6.8,7.5,321.9,318.7,6.7,7.4,NaN, NaN,NaN,212.5,NaN,1080261004,NaN,NaN,4.0,001803,   NaN,287.7,30.836440,-121.623450,-0.67,NaN,NaN,15.807, NaN,NaN,NaN, NaN, NaN
20040326,003033,261022,30.836410,-121.623800,NaN,15.811,32.847,41.304,1842.56,0.0, NaN,14.816,14.778, NaN,24.135,   NaN,15.61,1021.36,87.00,15.40,25.9,23.4,6.7,7.5,321.9,317.8,6.7,7.5,NaN, NaN,NaN,245.7,NaN,1080261034,NaN,NaN,1.6,001833,   NaN,287.3,30.836310,-121.623670,-0.56,NaN,NaN,15.815, NaN,NaN,NaN, NaN, NaN
20040326,003103,261053,30.836250,-121.624020,NaN,15.819,32.847,41.312,1843.08,0.0, NaN,14.817,14.780, NaN,24.133,   NaN,15.61,1021.32,87.13,15.41,27.6,24.6,6.3,7.0,323.2,318.8,6.2,7.0,NaN, NaN,NaN,227.6,NaN,1080261064,NaN,NaN,1.8,001863,   NaN,286.1,30.836170,-121.623880,-0.58,NaN,NaN,15.823, NaN,NaN,NaN, NaN, NaN
20040326,003133,261083,30.836120,-121.624230,NaN,15.821,32.848,41.314,1842.74,0.0, NaN,14.817,14.783, NaN,24.133,   NaN,15.62,1021.33,87.38,15.42,30.0,25.9,5.9,6.6,324.8,319.7,5.9,6.5,NaN, NaN,NaN,220.3,NaN,1080261094,NaN,NaN,1.7,001893,   NaN,284.0,30.836040,-121.624090,-0.70,NaN,NaN,15.825, NaN,NaN,NaN, NaN, NaN
20040326,003203,261113,30.835970,-121.624450,NaN,15.827,32.848,41.320,1839.28,0.0, NaN,14.778,14.786, NaN,24.132,   NaN,15.61,1021.34,87.44,15.43,31.0,26.0,5.7,6.5,324.4,318.3,5.7,6.4,NaN, NaN,NaN,252.3,NaN,1080261124,NaN,NaN,1.1,001923,   NaN,284.6,30.835890,-121.624330,-0.60,NaN,NaN,15.831, NaN,NaN,NaN, NaN, NaN
20040326,003233,261143,30.835820,-121.624670,NaN,15.828,32.849,41.321,1834.68,0.0, NaN,14.823,14.790, NaN,24.132,   NaN,15.59,1021.33,87.35,15.41,30.2,26.3,6.0,6.7,323.1,317.9,5.9,6.6,NaN, NaN,NaN,232.9,NaN,1080261154,NaN,NaN,1.6,001953,   NaN,285.1,30.835740,-121.624550,-0.65,NaN,NaN,15.832, NaN,NaN,NaN, NaN, NaN
20040326,003303,261173,30.835670,-121.624890,NaN,15.826,32.848,41.319,1827.38,0.0, NaN,14.827,14.792, NaN,24.132,   NaN,15.58,1021.33,87.35,15.41,29.2,25.9,6.1,6.9,322.8,318.3,6.0,6.8,NaN, NaN,NaN,226.9,NaN,1080261184,NaN,NaN,2.4,001983,   NaN,285.3,30.835590,-121.624780,-0.61,NaN,NaN,15.830, NaN,NaN,NaN, NaN, NaN
20040326,003333,261203,30.835530,-121.625120,NaN,15.826,32.837,41.307,1824.82,0.0, NaN,14.827,14.792, NaN,24.124,   NaN,15.59,1021.36,87.56,15.40,28.7,25.6,5.9,6.8,322.9,318.4,5.9,6.7,NaN, NaN,NaN,280.8,NaN,1080261214,NaN,NaN,1.5,002013,   NaN,286.0,30.835450,-121.625010,-0.78,NaN,NaN,15.830, NaN,NaN,NaN, NaN, NaN
20040326,003403,261233,30.835370,-121.625340,NaN,15.836,32.848,41.327,1819.25,0.0, NaN,14.826,14.792, NaN,24.129,   NaN,15.59,1021.35,87.55,15.42,26.4,24.6,6.2,6.8,321.9,318.9,6.1,6.7,NaN, NaN,NaN,218.6,NaN,1080261244,NaN,NaN,2.8,002043,   NaN,288.7,30.835290,-121.625230,-0.62,NaN,NaN,15.840, NaN,NaN,NaN, NaN, NaN
20040326,003433,261263,30.835220,-121.625550,NaN,15.837,32.847,41.328,1814.99,0.0, NaN,14.823,14.791, NaN,24.129,   NaN,15.60,1021.39,87.51,15.40,24.1,22.2,6.4,7.0,320.6,317.6,6.3,6.9,NaN, NaN,NaN,287.7,NaN,1080261274,NaN,NaN,1.7,002073,   NaN,289.3,30.835140,-121.625430,-0.64,NaN,NaN,15.841, NaN,NaN,NaN, NaN, NaN
20040326,003503,261293,30.835080,-121.625770,NaN,15.838,32.847,41.329,1813.71,0.0, NaN,14.823,14.791, NaN,24.129,   NaN,15.61,1021.39,87.73,15.43,23.8,21.1,6.3,6.9,320.4,316.7,6.2,6.8,NaN, NaN,NaN,276.3,NaN,1080261304,NaN,NaN,1.5,002103,   NaN,287.1,30.835000,-121.625650,-0.69,NaN,NaN,15.842, NaN,NaN,NaN, NaN, NaN
20040326,003533,261323,30.834930,-121.626000,NaN,15.837,32.848,41.329,1809.66,0.0, NaN,14.824,14.791, NaN,24.130,   NaN,15.61,1021.39,87.77,15.44,25.2,22.5,6.2,6.6,321.3,317.6,6.1,6.6,NaN, NaN,NaN,244.9,NaN,1080261334,NaN,NaN,2.4,002133,   NaN,286.5,30.834850,-121.625870,-0.64,NaN,NaN,15.841, NaN,NaN,NaN, NaN, NaN
20040326,003603,261352,30.834790,-121.626220,NaN,15.829,32.849,41.323,1808.33,0.0, NaN,14.824,14.792, NaN,24.132,   NaN,15.61,1021.37,87.84,15.43,26.2,23.8,6.3,6.8,320.3,317.2,6.2,6.7,NaN, NaN,NaN,230.2,NaN,1080261364,NaN,NaN,1.1,002163,   NaN,282.6,30.834720,-121.626090,-0.58,NaN,NaN,15.833, NaN,NaN,NaN, NaN, NaN
20040326,003633,261383,30.834620,-121.626460,NaN,15.834,32.849,41.328,1804.53,0.0, NaN,14.828,14.796, NaN,24.131,   NaN,15.59,1021.34,87.76,15.41,28.3,25.6,6.4,7.0,320.0,316.6,6.3,6.9,NaN, NaN,NaN,236.7,NaN,1080261394,NaN,NaN,1.5,002193,   NaN,281.5,30.834560,-121.626320,-0.59,NaN,NaN,15.838, NaN,NaN,NaN, NaN, NaN
20040326,003703,261413,30.834480,-121.626700,NaN,15.840,32.850,41.334,1795.59,0.0, NaN,14.830,14.796, NaN,24.130,   NaN,15.58,1021.35,87.80,15.42,29.8,26.8,6.5,7.0,320.3,316.3,6.3,6.9,NaN, NaN,NaN,214.0,NaN,1080261424,NaN,NaN,3.7,002223,   NaN,283.5,30.834410,-121.626570,-0.59,NaN,NaN,15.844, NaN,NaN,NaN, NaN, NaN